This demonstration page uses our WeatherBlox Daily Observations layout. Learn more.

Left ArrowRight Arrow

Hourly Observations for August 9, 2015

Temp ( °F °C ) Dew Point ( °F °C ) Humidity (%) Winds ( mph kmh ) Pressure ( in mb ) Visibility ( mi km ) Precip ( " mm )
12:53 am 00:53 Clear 68 20 66 18.9 93 93 WNW 3 6 30.01 1016 10 16 N/A
1:53 am 01:53 Mostly Clear 67 19.4 65 18.3 93 93 N N/A 30.00 1016 8 13 N/A
2:53 am 02:53 Clear with Mist and Fog 66 18.9 65 18.3 96 96 N N/A 30.00 1016 5 8 N/A
3:42 am 03:42 Clear with Mist and Fog 65 18.3 64 17.8 97 97 N N/A 30.00 1016 3 4 N/A
3:49 am 03:49 Clear with Mist and Fog 64 18 64 18 100 100 N N/A 30.00 1016 5 8 N/A
3:53 am 03:53 Clear with Mist and Fog 65 18.3 64 17.8 97 97 N N/A 29.99 1016 6 10 N/A
4:53 am 04:53 Clear with Mist and Fog 65 18.3 63 17.2 93 93 N N/A 29.99 1016 5 8 N/A
5:07 am 05:07 Mostly Clear with Mist and Fog 65 18.3 64 17.8 97 97 N N/A 30.00 1016 5 8 N/A
5:17 am 05:17 Mostly Clear with Mist and Fog 64 17.8 63 17.2 96 96 N N/A 30.00 1016 2 2 N/A
5:21 am 05:21 Mostly Cloudy with Mist and Fog 64 17.8 63 17.2 96 96 N N/A 30.00 1016 1 1 N/A
5:28 am 05:28 Mostly Clear with Mist and Fog 64 17.8 63 17.2 96 96 N N/A 30.00 1016 1 2 N/A
5:32 am 05:32 Mostly Clear with Mist and Fog 64 17.8 63 17.2 96 96 N N/A 30.00 1016 2 3 N/A
5:43 am 05:43 Mostly Clear with Mist and Fog 64 17.8 63 17.2 96 96 N N/A 30.00 1016 5 8 N/A
5:53 am 05:53 Mostly Clear with Mist and Fog 64 17.8 63 17.2 96 96 N N/A 30.00 1016 6 10 N/A
6:21 am 06:21 Mostly Cloudy with Mist and Fog 64 17.8 63 17.2 96 96 N N/A 30.00 1016 3 4 N/A
6:31 am 06:31 Mostly Cloudy with Mist and Fog 64 17.8 63 17.2 96 96 N N/A 30.03 1017 4 6 N/A
6:38 am 06:38 Partly Cloudy with Mist and Fog 64 17.8 63 17.2 96 96 N N/A 30.03 1017 5 8 N/A
6:53 am 06:53 Sunny with Mist and Fog 64 17.8 63 17.2 96 96 N N/A 30.01 1016 6 10 N/A
7:53 am 07:53 Sunny with Mist and Fog 68 20 66 18.9 93 93 N N/A 30.00 1016 6 10 N/A
8:53 am 08:53 Sunny 72 22.2 68 20 87 87 N N/A 30.02 1017 9 14 N/A
9:53 am 09:53 Sunny 77 25 68 20 74 74 N N/A 30.01 1016 10 16 N/A
10:53 am 10:53 Sunny 80 26.7 68 20 67 67 N N/A 30.03 1017 10 16 N/A
11:53 am 11:53 Sunny 81 27.2 67 19.4 62 62 N N/A 30.03 1017 10 16 N/A
12:53 pm 12:53 Sunny 83 28.3 67 19.4 59 59 N N/A 30.04 1017 10 16 N/A
1:53 pm 13:53 Sunny 82 27.8 67 19.4 60 60 N N/A 30.01 1016 10 16 N/A
2:53 pm 14:53 Mostly Cloudy with Light Rain 83 28.3 70 21.1 65 65 ENE 8 13 29.98 1015 10 16 N/A
3:53 pm 15:53 Mostly Cloudy 83 28.3 71 21.7 67 67 N N/A 29.98 1015 10 16 N/A
4:53 pm 16:53 Mostly Cloudy 82 27.8 69 20.6 65 65 VRB 3 6 29.97 1015 10 16 N/A
5:53 pm 17:53 Mostly Sunny 80 26.7 72 22.2 76 76 N N/A 29.96 1014 10 16 N/A
6:53 pm 18:53 Mostly Cloudy with Light Rain 78 25.6 73 22.8 85 85 N N/A 29.97 1015 10 16 N/A
7:53 pm 19:53 Cloudy 75 23.9 73 22.8 94 94 N N/A 29.96 1015 9 14 N/A
8:53 pm 20:53 Cloudy 75 23.9 72 22.2 90 90 N N/A 29.95 1014 10 16 N/A
9:53 pm 21:53 Cloudy 74 23.3 72 22.2 94 94 N N/A 29.96 1015 10 16 N/A
10:53 pm 22:53 Cloudy 74 23.3 72 22.2 94 94 N N/A 29.97 1015 8 13 N/A
11:53 pm 23:53 Mostly Cloudy with Mist and Fog 73 22.8 72 22.2 96 96 N N/A 29.96 1015 6 10 N/A

Powered by AerisWeather